STARLINK-4372, 53233

Orbit data source: Space-Track

STARLINK-4372, 53233 is a payload satellite owned by SpaceX/Seattle (US) in SSO that was launched on Fri, 22 Jul 2022 UTC via an FALCON 9 launch vehicle from the Air Force Western Test Range (AFWTR). Payload-class satellites include a variety of spacecraft equipped with specific instruments for various scientific and technological missions. These include communications satellites like Starlink; space stations such as the ISS; scientific satellites like the Hubble; Earth observation satellites from companies like Planet Labs, Umbra, and HawkEye 360; GPS; miniature CubeSats for education and research; and military/defense satellites.

Loading next visibility...
Identifier
53233, 2022-084AW
Orbit
SSO
Country
Flag of USUS
Related business
Manufacturer
SpaceX/Seattle
Mission
Operational Commercial Communications
Bus & Motor
STARLINK, Unknown motor
Mass
297 kg wet, ~275 kg dry
Launch date (UTC)
2022-07-22 (4 years ago)
Launch vehicle
FALCON 9
Launch site
Air Force Western Test Range (AFWTR)
Object type
Payload
Rocket body
Debris
Shape & HBR
Box + 1 Pan, 10.1 m
Radar Cross Section
13.562 m², Large (>1 m²)

Expand to show TLE details & history
Last TLE update: 3 days ago

TLE from 3 days ago
0 STARLINK-4372
1 53233U 22084AW  26170.71905636  .00002102  00000-0  14954-3 0  9996
2 53233  97.3388 229.5795 0001302 109.6573 250.4796 15.05657426214665
Epoch: 2026-06-19T17:15Z
TLE epoch observation values (Epoch: 2026-06-19T17:15:26.469Z)
Latitude
0.00007°
Longitude
62.7752°
Altitude
552.863 km
Speed
7.585 km/s
True Right ascension
15h 18m 19s
True Declination
0° 00' 00"
Sunlit
Object was in full shadow at epoch
Visualization orbit readout
Latitude
Unknown
Longitude
Unknown
Altitude
Unknown
Speed
Unknown
Apparent Right ascension
Unknown
Apparent Declination
Unknown
Sunlit
N/A
Visualization observer readout
Local Sidereal Time
21:25:53
Azimuth
Unknown
Elevation
Unknown
Doppler factor
Unknown
Orbital elements
Apogee altitude
547.372 km
Perigee altitude
545.569 km
Semi-major axis
6,924.608 km
Eccentricity
0.00013
Inclination
97.3388°
RAAN
229.5795°
Arg. of periapsis
109.6573°
True anomaly
250.46554°
Mean anomaly
250.4796°
Eccentric anomaly
250.47257°
Mean motion
3.76661 °/min
Orbital period
95.58 mins
BSTAR
0.00014954
Loading maneuver chart data...
Computing Atmospheric mass density...
Loading historical data...
Loading historical data...
Loading historical data...
Loading historical data...
Loading historical data...
Loading historical data...
Loading historical data...

Documentation

Showing up to 5 results
|